星链-5806 (STARLINK-5806 )

导读 | 豆包AI

STARLINK-5806是美国SpaceX公司星链(Starlink)项目的低轨通信卫星,于2023年3月24日发射升空,属于星链第二代星座组网卫星,具备激光星间链路能力。 它依托Ku/Ka波段通信,可支持高速宽带服务,单星覆盖百公里范围,平均时延低于50ms,为全球提供高性价比的互联网接入,进一步完善了星链全球低轨卫星通信网络覆盖。

基本信息
目录编号:
56007
目录名称:
STARLINK-5806
国际标识:
2023-042X
轨道中心:
EARTH
卫星名称:
星链-5806
卫星全名:
星链-5806 (STARLINK-5806 )
卫星状态:
在轨 (已飞行1133 天)
发射日期:
2023-03-24 UTC
国别 :
美国 (US)
星等 :
--
轨道信息
数据来源 国际轨道数据
星历时间: 2026-04-30T12:00:01+0800
7小时前
查看轨道信息
半长轴: 6861.15km
偏心率: 0.0001246
轨道倾角: 42.999°
近地点辐角 265.060°
升交点赤经 128.874°
平近点角 47.317°
近地点: 482.158km
远地点: 483.868km
周期: 94.266分钟
每日圈数: 15.275923
详细信息
固有亮度:
5
最大亮度:
2.5
卫星平台:
Starlink v1.5
覆盖范围:
全球
运营商:
太空探索技术公司
运营商所在国:
美国
制造商(研发单位):
太空探索技术公司
制造商所在国:
美国
使用方式:
暂无
卫星简介
星链(Starlink)计划是由太空探索技术公司(SpaceX)提出的一个巨型低轨卫星互联网星座项目,计划在2019年至2024年间在太空搭建由约1.2万颗卫星组成的“星链”网络,其中1584颗将部署在地球上空550千米处的近地轨道,并从2020年开始工作。该卫星仍在工作。
2D轨道图
3D轨道图
轨道高度分析图
轨道倾角分析图
轨道综合分析图
查看轨道综合分析图